Regional Weather Roundup
Issued by NWS Memphis, TN

Home | Current Version | Previous Version | Text Only | Print | Product List | Glossary On
Versions: 1 2 3 4 5 6 7 8 9 10 11 12 13 14 15 16 17 18 19 20 21 22 23 24 25 26 27 28 29 30 31 32 33 34 35 36 37 38 39 40 41 42 43 44 45 46 47 48 49 50
000
ASUS44 KMEG 230410
RWRMEG
MEMPHIS CWA HOURLY WEATHER ROUNDUP
NATIONAL WEATHER SERVICE MEMPHIS TN
1100 PM CDT THU JUN 22 2017

...WEST TENNESSEE...

CITY           SKY/WX    TMP DP  RH WIND       PRES   REMARKS
MEMPHIS INTL   MOCLDY    79  76  90 SE14      29.76S
NWS MEMPHIS      N/A     77 N/A N/A MISG        N/A
JACKSON        CLOUDY    77  76  96 S3        29.81S
COVINGTON      CLEAR     77  75  94 SE8       29.78S
SOMERVILLE     PTCLDY    77  75  94 VRB6G12   29.79S
BOLIVAR        MOCLDY    77  75  94 SE7       29.81S
LEXINGTON      CLOUDY    79  73  83 VRB6      29.85S
SELMER         MOCLDY    77  73  88 S9        29.84R
SAVANNAH       CLOUDY    79  73  83 S14       29.84S
UNION CITY     PTCLDY    77  75  94 S9        29.79S
PARIS          CLOUDY    77  73  88 S7        29.82S
HUNTINGDON     CLOUDY    77  75  94 S10       29.83R


...EASTERN ARKANSAS...

CITY           SKY/WX    TMP DP  RH WIND       PRES   REMARKS
JONESBORO      CLOUDY    78  77  96 E8        29.74S
WEST MEMPHIS   PTCLDY    79  76  90 SE18G25   29.73S
BATESVILLE     CLOUDY    75  73  94 E9        29.71S
WALNUT RIDGE   MOCLDY    77  72  83 SE14      29.74S
BLYTHEVILLE    CLOUDY    79  76  90 SE13      29.77S
SEARCY         RAIN      77  77 100 SE12      29.70F FOG
STUTTGART      CLOUDY   N/A N/A N/A SE10G17   29.68R
PINE BLUFF     LGT RAIN  77  74  90 SE15      29.64S
MONTICELLO     CLOUDY    79  74  84 S15G23    29.65S


...NORTH MISSISSIPPI...

CITY           SKY/WX    TMP DP  RH WIND       PRES   REMARKS
TUPELO         CLOUDY    79  73  82 SE13      29.84R
OXFORD         CLEAR     75  73  94 SE9       29.82R
BATESVILLE     CLEAR     78  73  86 SE8       29.78R
TUNICA           N/A     77  73  88 SE14G20   29.75R
CLARKSDALE       N/A     79  79 100 SE16G23   29.74R
CORINTH        CLOUDY    77  73  88 SE8       29.84S
GREENWOOD      PTCLDY    77  72  84 S10       29.77R
COLUMBUS       MOCLDY    79  78  98 S17       29.86R
STARKVILLE     CLOUDY    77  73  88 SE10      29.86R
GOLDEN TRIANGL CLOUDY    79  72  78 S10       29.83R


...SOUTHEAST MISSOURI...

CITY           SKY/WX    TMP DP  RH WIND       PRES   REMARKS
KENNETT        DRIZZLE   79  77  94 SE12      29.75S
MALDEN         RAIN      77  73  88 SE5       29.78R
WEST PLAINS    CLOUDY    75  72  90 SE5       29.78R
POPLAR BLUFF   LGT RAIN  75  75 100 CALM      29.76F
CAPE GIRARDEAU CLOUDY    78  74  87 S7        29.76F


...NORTHWEST ALABAMA...

CITY           SKY/WX    TMP DP  RH WIND       PRES   REMARKS
MUSCLE SHOALS  CLOUDY    79  72  79 S12       29.90R


...MIDDLE TENNESSEE...

CITY           SKY/WX    TMP DP  RH WIND       PRES   REMARKS
NASHVILLE      CLOUDY    76  73  91 S8        29.90R
CLARKSVILLE    MOCLDY    76  72  87 S6        29.85R
COLUMBIA       CLOUDY    77  75  94 S8        29.87S


...WESTERN KENTUCKY...

CITY           SKY/WX    TMP DP  RH WIND       PRES   REMARKS
PADUCAH        CLOUDY    80  72  76 S8        29.79S
FORT CAMPBELL  MOCLDY    77  73  90 S8        29.85R


...CENTRAL ARKANSAS...

CITY           SKY/WX    TMP DP  RH WIND       PRES   REMARKS
LITTLE ROCK    RAIN      76  76 100 E10       29.65S FOG


SKY/WX REPORTED AS FAIR MEANS FEW OR NO CLOUDS BELOW
12 THOUSAND FEET.




USA.gov is the U.S. government's official web portal to all federal, state and local government web resources and services.